Regional Weather Roundup
Issued by NWS

Home | Current Version | Previous Version | Text Only | Print | Product List | Glossary On
Versions: 1 2 3 4 5 6 7 8 9 10 11 12 13 14 15 16 17 18 19 20 21 22 23 24 25 26 27 28 29 30 31 32 33 34 35 36 37 38 39 40 41 42 43 44 45 46 47 48 49 50
000
ASUS43 KMKX 161320
RWRWI

WISCONSIN REGIONAL WEATHER ROUNDUP
NATIONAL WEATHER SERVICE MILWAUKEE/SULLIVAN WI
700 AM CST MON JAN 16 2017

NOTE: "FAIR" INDICATES FEW OR NO CLOUDS BELOW 12,000 FEET WITH NO
SIGNIFICANT WEATHER AND/OR OBSTRUCTIONS TO VISIBILITY.

WIZ001-002-006>008-014>016-023>028-161400-
NORTHWEST WISCONSIN

CITY           SKY/WX    TMP DP  RH WIND       PRES   REMARKS
SUPERIOR ARPT  CLOUDY    13  11  92 SW6       30.15F FOG     WCI   4
ASHLAND        CLOUDY    18  14  84 S9        30.17S WCI   7
HAYWARD        CLOUDY     1  -4  79 CALM      30.18R
SIREN          CLOUDY     0  -4  82 CALM      30.19F
CUMBERLAND     CLOUDY     3   0  85 CALM      30.18S FOG
RICE LAKE      CLOUDY     0  -3  84 CALM      30.21S
CHETEK         CLOUDY     0  -4  85 CALM      30.20S
LADYSMITH      CLOUDY     5   2  87 CALM      30.21R
EAU CLAIRE     CLOUDY     4   2  91 CALM      30.20S FOG
MENOMONIE      CLOUDY     5   2  86 CALM      30.21S
NEW RICHMOND   CLOUDY     6   2  85 CALM      30.19F
OSCEOLA        CLOUDY     6   3  87 SE3       30.21F
$$

WIZ003>005-009-010-017-018-161400-
NORTH CENTRAL WISCONSIN

CITY           SKY/WX    TMP DP  RH WIND       PRES   REMARKS
MANITOWISH WTR CLOUDY    -1  -4  87 CALM      30.15S
ARBOR VITAE    PTCLDY     2  -1  83 CALM      30.15S
WOODRUFF       PTCLDY     2  -1  83 CALM      30.15S
RHINELANDER    CLOUDY    12  10  92 W5        30.17R WCI   4
EAGLE RIVER    CLOUDY    -1  -6  82 CALM      30.15S
LAND O LAKES   CLOUDY    -1  -4  85 CALM      30.16S
PHILLIPS       CLOUDY   N/A N/A N/A CALM      30.18R
TOMAHAWK       CLOUDY    -3  -7  84 CALM      30.18S
MEDFORD        CLOUDY     2  -1  84 CALM      30.18S
MERRILL        CLOUDY    -4  -9  81 CALM        N/A
$$

WIZ029-030-035-036-043>047-161400-
CENTRAL WISCONSIN

CITY           SKY/WX    TMP DP  RH WIND       PRES   REMARKS
WAUSAU         CLOUDY     2  -1  88 CALM      30.21R
MOSINEE        PTCLDY     9   9 100 CALM      30.21F
MARSHFIELD     CLOUDY     8   5  87 NE3       30.19S FOG
STEVENS POINT  CLOUDY     1  -2  87 CALM      30.22F
WAUPACA        PTCLDY    13  10  85 CALM      30.24F
WAUTOMA        CLOUDY    16  13  88 CALM      30.24F
WISC RAPIDS    CLOUDY    10   8  92 CALM      30.22F
CAMP DOUGLAS   CLOUDY    20  17  86 CALM      30.20F
$$

WIZ011>013-019>022-031-037>040-048>050-161400-
NORTHEAST WISCONSIN

CITY           SKY/WX    TMP DP  RH WIND       PRES   REMARKS
ANTIGO         CLOUDY     1  -1  88 CALM      30.20R
SHAWANO        CLOUDY    10   6  85 CALM      30.25S
OCONTO         CLOUDY    10   7  86 CALM      30.25S
STURGEON BAY   CLOUDY    21  14  74 SW5       30.25R WCI  15
GREEN BAY      CLOUDY    20  16  84 SW5       30.25S WCI  13
MANITOWOC      CLOUDY    17  14  88 CALM      30.26F
APPLETON       MOCLDY    18  12  79 CALM      30.22F
CLINTONVILLE   CLOUDY     9   3  78 CALM      30.24F
OSHKOSH        CLOUDY    22  17  81 N5        30.24S WCI  16
$$

WIZ032>034-041-042-053>061-161400-
SOUTHWEST WISCONSIN

CITY           SKY/WX    TMP DP  RH WIND       PRES   REMARKS
LA CROSSE      CLOUDY   N/A N/A N/A SE5       30.21F
SPARTA         CLOUDY    18  17  95 CALM      30.22F
VIROQUA        CLOUDY    26  22  85 SE5       30.18F WCI  21
BOSCOBEL       FRZ RAIN  29  26  89 E3        30.22F FOG
PRAIRIE DU CHI MIX PCPN  29  26  86 E5        30.21F WCI  24
PLATTEVILLE    CLOUDY    30  30 100 E8        30.20F WCI  23
$$

WIZ056-057-062-063-064-067-068-161400-
SOUTH CENTRAL WISCONSIN

CITY           SKY/WX    TMP DP  RH WIND       PRES   REMARKS
REEDSBURG      MIX PCPN  24  23  96 CALM      30.22R
BARABOO/DELLS  MIX PCPN  26  22  84 CALM      30.22R
LONE ROCK      FRZ RAIN  28  24  85 E5        30.23F FOG     WCI  23
MINERAL POINT  LGT RAIN  32  30  93 SE6       30.20S WCI  26
MADISON        FRZ RAIN  28  24  85 S7        30.22F FOG     WCI  21
MIDDLETON      CLOUDY    30  27  90 SE5       30.22F WCI  25
WATERTOWN      MIX PCPN  29  26  89 S3        30.24S
MONROE         MIX PCPN  30  28  93 SE10      30.21F WCI  21
JANESVILLE     FRZ RAIN  32  30  93 SE6       30.24F WCI  26
$$

WIZ051-052-058>065-066-070>072-161400-
SOUTHEAST WISCONSIN

CITY           SKY/WX    TMP DP  RH WIND       PRES   REMARKS
MILWAUKEE      FRZ RAIN  31  23  72 CALM      30.26F FOG
WAUKESHA       LGT SNOW  27  21  80 S5        30.26F WCI  21
MILWAUKEE/TIMM LGT SNOW  28  21  74 S5        30.26F WCI  23
RACINE         FRZ RAIN  31  26  82 S6        30.28F WCI  25
KENOSHA        FRZ RAIN  31  27  85 SE3       30.26F FOG
FOND DU LAC    PTCLDY    24  17  74 CALM      30.24S
SHEBOYGAN      CLOUDY    22  17  81 CALM      30.25F
WEST BEND      CLOUDY    23  21  93 CALM      30.25S
JUNEAU         CLOUDY    24  20  85 NE3       30.24F
$$

LSZ147-162-161400-
LAKE SUPERIOR

STATION/POSITION TIME  TEMP    WIND        PRES    WAVE
                       AIR SEA DIR/SP/G            HT/PER
                 (UTC) (F)     (DEG/KT/KT) (MB)    (FT/S)
DEVILS ISLAND    1300   26     230/ 15/ 19 1021.5S
PORT WING        1240   15     160/  3/  4 1021.3S
SAXON HARBOR     1230   21     190/  7/ 10 1021.3S
$$

LMZ867-665-643>646-161400-
LAKE MICHIGAN

STATION/POSITION TIME  TEMP    WIND        PRES    WAVE
                       AIR SEA DIR/SP/G            HT/PER
                 (UTC) (F)     (DEG/KT/KT) (MB)    (FT/S)
NORTHPORT PIER   1306   22      CALM  /  4 1024.0
SISTER BAY       1250   22        CALM       N/A
KEWAUNEE LAKESHO 1254   22      CALM  /  1 1024.0S
SHEBOYGAN LAKESH 1300   27     180/  2/  3 1025.3F
PORT WASHINGTON  1240   26      CALM  /  1 1025.7F
MILWAUKEE LAKESH 1300   31     200/  5/  6   N/A
KENOSHA   LAKESH 1300   31        CALM     1025.1
$$

TC  - TEMPERATURE IN CELSIUS
VSB - VISIBILITY IN STATUTE MILES
WCI - WIND CHILL INDEX
HX  - HEAT INDEX





USA.gov is the U.S. government's official web portal to all federal, state and local government web resources and services.